Time,TemperatureF,DewpointF,PressureIn,WindDirection,WindDirectionDegrees,WindSpeedMPH,WindSpeedGustMPH,Humidity,HourlyPrecipIn,Conditions,Clouds,dailyrainin,SolarRadiationWatts/m^2,SoftwareType,DateUTC
2013-07-15 00:01:00,68.2,63.5,30.04,SE,126,1.0,1.0,85,0.00,,,0.00,0,WeatherCatV1.15B25,2013-07-15 05:01:00,
2013-07-15 00:06:00,68.3,63.6,30.04,SE,126,0.0,1.0,85,0.00,,,0.00,0,WeatherCatV1.15B25,2013-07-15 05:06:00,
2013-07-15 00:11:00,68.3,63.6,30.05,SE,126,0.0,0.0,85,0.00,,,0.00,0,WeatherCatV1.15B25,2013-07-15 05:11:00,
2013-07-15 00:16:00,68.3,63.6,30.05,SE,126,0.0,0.0,85,0.00,,,0.00,0,WeatherCatV1.15B25,2013-07-15 05:16:00,
2013-07-15 00:21:00,68.3,63.6,30.05,SE,126,0.0,0.0,85,0.00,,,0.00,0,WeatherCatV1.15B25,2013-07-15 05:21:00,
2013-07-15 00:26:00,68.3,63.6,30.05,SE,126,0.0,1.0,85,0.00,,,0.00,0,WeatherCatV1.15B25,2013-07-15 05:26:00,
2013-07-15 00:31:00,68.4,63.7,30.05,SE,126,1.0,6.0,85,0.00,,,0.00,0,WeatherCatV1.15B25,2013-07-15 05:31:00,
2013-07-15 00:36:00,68.5,63.5,30.05,SE,126,2.0,3.0,84,0.00,,,0.00,0,WeatherCatV1.15B25,2013-07-15 05:36:00,
2013-07-15 00:41:00,68.5,63.5,30.05,SE,126,0.0,3.0,84,0.00,,,0.00,0,WeatherCatV1.15B25,2013-07-15 05:41:00,
2013-07-15 00:46:00,68.3,62.9,30.05,SE,126,1.0,4.0,83,0.00,,,0.00,0,WeatherCatV1.15B25,2013-07-15 05:46:00,
2013-07-15 00:51:00,68.2,62.8,30.05,SE,126,0.0,3.0,83,0.00,,,0.00,0,WeatherCatV1.15B25,2013-07-15 05:51:00,
2013-07-15 00:56:00,68.1,62.4,30.05,SE,126,0.0,3.0,82,0.00,,,0.00,0,WeatherCatV1.15B25,2013-07-15 05:56:00,
2013-07-15 01:01:00,68.0,62.3,30.05,SE,126,1.0,4.0,82,0.00,,,0.00,0,WeatherCatV1.15B25,2013-07-15 06:01:00,
2013-07-15 01:06:00,68.1,62.0,30.05,SE,126,5.0,5.0,81,0.00,,,0.00,0,WeatherCatV1.15B25,2013-07-15 06:06:00,
2013-07-15 01:10:00,68.3,62.2,30.05,SE,126,0.0,2.0,81,0.00,,,0.00,0,WeatherCatV1.15B25,2013-07-15 06:10:00,
2013-07-15 01:15:00,68.5,62.1,30.06,SE,129,0.0,3.0,80,0.00,,,0.00,0,WeatherCatV1.15B25,2013-07-15 06:15:00,
2013-07-15 01:20:00,68.6,61.8,30.06,SE,127,0.0,8.0,79,0.00,,,0.00,0,WeatherCatV1.15B25,2013-07-15 06:20:00,
2013-07-15 01:25:00,68.9,61.7,30.06,SE,127,0.0,3.0,78,0.00,,,0.00,0,WeatherCatV1.15B25,2013-07-15 06:25:00,
2013-07-15 01:30:00,69.0,61.8,30.06,SE,127,0.0,2.0,78,0.00,,,0.00,0,WeatherCatV1.15B25,2013-07-15 06:30:00,
2013-07-15 01:35:00,69.0,61.8,30.06,SE,127,0.0,5.0,78,0.00,,,0.00,0,WeatherCatV1.15B25,2013-07-15 06:35:00,
2013-07-15 01:40:00,68.8,61.7,30.06,SE,128,1.0,7.0,78,0.00,,,0.00,0,WeatherCatV1.15B25,2013-07-15 06:40:00,
2013-07-15 01:45:00,68.6,61.5,30.06,SE,129,0.0,4.0,78,0.00,,,0.00,0,WeatherCatV1.15B25,2013-07-15 06:45:00,
2013-07-15 01:50:00,68.3,61.5,30.06,SE,129,0.0,3.0,79,0.00,,,0.00,0,WeatherCatV1.15B25,2013-07-15 06:50:00,
2013-07-15 01:55:00,68.1,61.3,30.06,SE,129,0.0,0.0,79,0.00,,,0.00,0,WeatherCatV1.15B25,2013-07-15 06:55:00,
2013-07-15 02:00:00,67.9,61.5,30.06,SE,129,0.0,0.0,80,0.00,,,0.00,0,WeatherCatV1.15B25,2013-07-15 07:00:00,
2013-07-15 02:05:00,67.7,61.3,30.06,SE,129,0.0,2.0,80,0.00,,,0.00,0,WeatherCatV1.15B25,2013-07-15 07:05:00,
2013-07-15 02:10:00,67.4,61.4,30.06,SE,129,0.0,2.0,81,0.00,,,0.00,0,WeatherCatV1.15B25,2013-07-15 07:10:00,
2013-07-15 02:15:00,67.2,61.2,30.06,SE,129,0.0,5.0,81,0.00,,,0.00,0,WeatherCatV1.15B25,2013-07-15 07:15:00,
2013-07-15 02:20:00,67.0,61.3,30.06,SE,129,0.0,2.0,82,0.00,,,0.00,0,WeatherCatV1.15B25,2013-07-15 07:20:00,
2013-07-15 02:25:00,66.8,61.1,30.06,SE,129,0.0,1.0,82,0.00,,,0.00,0,WeatherCatV1.15B25,2013-07-15 07:25:00,
2013-07-15 02:30:00,66.7,61.0,30.06,SE,129,0.0,0.0,82,0.00,,,0.00,0,WeatherCatV1.15B25,2013-07-15 07:30:00,
2013-07-15 02:35:00,66.6,61.3,30.06,SE,129,1.0,5.0,83,0.00,,,0.00,0,WeatherCatV1.15B25,2013-07-15 07:35:00,
2013-07-15 02:40:00,66.5,60.8,30.06,SE,129,0.0,3.0,82,0.00,,,0.00,0,WeatherCatV1.15B25,2013-07-15 07:40:00,
2013-07-15 02:45:00,66.4,60.7,30.06,SE,129,3.0,5.0,82,0.00,,,0.00,0,WeatherCatV1.15B25,2013-07-15 07:45:00,
2013-07-15 02:50:00,66.4,60.7,30.06,SE,129,0.0,1.0,82,0.00,,,0.00,0,WeatherCatV1.15B25,2013-07-15 07:50:00,
2013-07-15 02:55:00,66.3,60.6,30.06,SE,129,0.0,2.0,82,0.00,,,0.00,0,WeatherCatV1.15B25,2013-07-15 07:55:00,
2013-07-15 03:00:00,66.2,60.9,30.06,SE,129,0.0,3.0,83,0.00,,,0.00,0,WeatherCatV1.15B25,2013-07-15 08:00:00,
2013-07-15 03:05:00,66.2,60.9,30.06,SE,129,1.0,2.0,83,0.00,,,0.00,0,WeatherCatV1.15B25,2013-07-15 08:05:00,
2013-07-15 03:10:00,66.1,60.8,30.06,SE,129,1.0,2.0,83,0.00,,,0.00,0,WeatherCatV1.15B25,2013-07-15 08:10:00,
2013-07-15 03:15:00,66.1,60.8,30.06,SE,129,0.0,2.0,83,0.00,,,0.00,0,WeatherCatV1.15B25,2013-07-15 08:15:00,
2013-07-15 03:20:00,66.0,60.7,30.06,SE,129,0.0,0.0,83,0.00,,,0.00,0,WeatherCatV1.15B25,2013-07-15 08:20:00,
2013-07-15 03:25:00,65.9,60.6,30.06,SE,129,1.0,1.0,83,0.00,,,0.00,0,WeatherCatV1.15B25,2013-07-15 08:25:00,
2013-07-15 03:30:00,65.8,60.5,30.06,SE,129,0.0,1.0,83,0.00,,,0.00,0,WeatherCatV1.15B25,2013-07-15 08:30:00,
2013-07-15 03:35:00,65.7,60.4,30.06,SE,129,0.0,0.0,83,0.00,,,0.00,0,WeatherCatV1.15B25,2013-07-15 08:35:00,
2013-07-15 03:40:00,65.6,60.3,30.06,SE,129,0.0,0.0,83,0.00,,,0.00,0,WeatherCatV1.15B25,2013-07-15 08:40:00,
2013-07-15 03:45:00,65.5,60.2,30.06,SE,129,0.0,5.0,83,0.00,,,0.00,0,WeatherCatV1.15B25,2013-07-15 08:45:00,
2013-07-15 03:50:00,65.4,60.4,30.06,SE,129,0.0,2.0,84,0.00,,,0.00,0,WeatherCatV1.15B25,2013-07-15 08:50:00,
2013-07-15 03:55:00,65.3,60.3,30.06,SE,129,0.0,0.0,84,0.00,,,0.00,0,WeatherCatV1.15B25,2013-07-15 08:55:00,
2013-07-15 04:00:00,65.2,60.2,30.07,SE,129,0.0,1.0,84,0.00,,,0.00,0,WeatherCatV1.15B25,2013-07-15 09:00:00,
2013-07-15 04:05:00,65.1,60.1,30.07,SE,129,0.0,1.0,84,0.00,,,0.00,0,WeatherCatV1.15B25,2013-07-15 09:05:00,
2013-07-15 04:10:00,65.0,60.0,30.07,SE,129,0.0,1.0,84,0.00,,,0.00,0,WeatherCatV1.15B25,2013-07-15 09:10:00,
2013-07-15 04:15:00,64.8,59.8,30.07,SE,129,0.0,1.0,84,0.00,,,0.00,0,WeatherCatV1.15B25,2013-07-15 09:15:00,
2013-07-15 04:20:00,64.7,60.1,30.07,SE,129,0.0,1.0,85,0.00,,,0.00,0,WeatherCatV1.15B25,2013-07-15 09:20:00,
2013-07-15 04:25:00,64.6,60.0,30.07,SE,129,0.0,0.0,85,0.00,,,0.00,0,WeatherCatV1.15B25,2013-07-15 09:25:00,
2013-07-15 04:30:00,64.4,59.8,30.07,SE,129,0.0,0.0,85,0.00,,,0.00,0,WeatherCatV1.15B25,2013-07-15 09:30:00,
2013-07-15 04:35:00,64.3,59.7,30.07,SE,129,0.0,0.0,85,0.00,,,0.00,0,WeatherCatV1.15B25,2013-07-15 09:35:00,
2013-07-15 04:40:00,64.2,59.6,30.07,SE,129,0.0,0.0,85,0.00,,,0.00,0,WeatherCatV1.15B25,2013-07-15 09:40:00,
2013-07-15 04:45:00,64.0,59.7,30.07,SE,129,0.0,0.0,86,0.00,,,0.00,0,WeatherCatV1.15B25,2013-07-15 09:45:00,
2013-07-15 04:50:00,63.9,59.6,30.07,SE,129,0.0,0.0,86,0.00,,,0.00,0,WeatherCatV1.15B25,2013-07-15 09:50:00,
2013-07-15 04:55:00,63.8,59.5,30.07,SE,129,0.0,0.0,86,0.00,,,0.00,0,WeatherCatV1.15B25,2013-07-15 09:55:00,
2013-07-15 05:00:00,63.6,59.3,30.07,SE,129,0.0,0.0,86,0.00,,,0.00,0,WeatherCatV1.15B25,2013-07-15 10:00:00,
2013-07-15 05:05:00,63.5,59.6,30.07,SE,129,0.0,0.0,87,0.00,,,0.00,0,WeatherCatV1.15B25,2013-07-15 10:05:00,
2013-07-15 05:10:00,63.4,59.5,30.07,SE,129,0.0,0.0,87,0.00,,,0.00,0,WeatherCatV1.15B25,2013-07-15 10:10:00,
2013-07-15 05:15:00,63.3,59.4,30.07,SE,129,0.0,0.0,87,0.00,,,0.00,0,WeatherCatV1.15B25,2013-07-15 10:15:00,
2013-07-15 05:20:00,63.2,59.3,30.07,SE,129,0.0,0.0,87,0.00,,,0.00,0,WeatherCatV1.15B25,2013-07-15 10:20:00,
2013-07-15 05:25:00,63.1,59.2,30.07,SE,129,0.0,0.0,87,0.00,,,0.00,0,WeatherCatV1.15B25,2013-07-15 10:25:00,
2013-07-15 05:30:00,63.0,59.1,30.07,SE,129,0.0,0.0,87,0.00,,,0.00,0,WeatherCatV1.15B25,2013-07-15 10:30:00,
2013-07-15 05:35:00,62.9,59.3,30.07,SE,129,0.0,0.0,88,0.00,,,0.00,0,WeatherCatV1.15B25,2013-07-15 10:35:00,
2013-07-15 05:40:00,62.8,59.2,30.07,SE,129,0.0,0.0,88,0.00,,,0.00,0,WeatherCatV1.15B25,2013-07-15 10:40:00,
2013-07-15 05:45:00,62.7,59.1,30.07,SE,129,0.0,0.0,88,0.00,,,0.00,0,WeatherCatV1.15B25,2013-07-15 10:45:00,
2013-07-15 05:50:00,62.6,59.0,30.07,SE,129,0.0,0.0,88,0.00,,,0.00,0,WeatherCatV1.15B25,2013-07-15 10:50:00,
2013-07-15 05:55:00,62.5,58.9,30.08,SE,129,0.0,1.0,88,0.00,,,0.00,0,WeatherCatV1.15B25,2013-07-15 10:55:00,
2013-07-15 06:00:00,62.6,59.0,30.08,SE,129,0.0,0.0,88,0.00,,,0.00,0,WeatherCatV1.15B25,2013-07-15 11:00:00,
2013-07-15 06:05:00,62.5,58.9,30.08,SE,129,0.0,0.0,88,0.00,,,0.00,0,WeatherCatV1.15B25,2013-07-15 11:05:00,
2013-07-15 06:10:00,62.5,58.9,30.08,SE,129,0.0,0.0,88,0.00,,,0.00,0,WeatherCatV1.15B25,2013-07-15 11:10:00,
2013-07-15 06:15:00,62.5,58.9,30.08,SE,129,0.0,0.0,88,0.00,,,0.00,5,WeatherCatV1.15B25,2013-07-15 11:15:00,
2013-07-15 06:20:00,62.5,58.9,30.08,SE,129,0.0,0.0,88,0.00,,,0.00,9,WeatherCatV1.15B25,2013-07-15 11:20:00,
2013-07-15 06:25:00,62.5,58.9,30.08,SE,129,0.0,0.0,88,0.00,,,0.00,11,WeatherCatV1.15B25,2013-07-15 11:25:00,
2013-07-15 06:30:00,62.5,58.9,30.08,SE,129,0.0,0.0,88,0.00,,,0.00,14,WeatherCatV1.15B25,2013-07-15 11:30:00,
2013-07-15 06:35:00,62.5,58.9,30.08,SE,129,0.0,0.0,88,0.00,,,0.00,18,WeatherCatV1.15B25,2013-07-15 11:35:00,
2013-07-15 06:40:00,62.5,58.9,30.08,SE,129,0.0,1.0,88,0.00,,,0.00,21,WeatherCatV1.15B25,2013-07-15 11:40:00,
2013-07-15 06:45:00,62.5,58.9,30.08,SE,129,0.0,1.0,88,0.00,,,0.00,23,WeatherCatV1.15B25,2013-07-15 11:45:00,
2013-07-15 06:50:00,62.7,59.1,30.08,SE,129,0.0,0.0,88,0.00,,,0.00,28,WeatherCatV1.15B25,2013-07-15 11:50:00,
2013-07-15 06:55:00,62.8,59.2,30.09,SE,129,0.0,0.0,88,0.00,,,0.00,32,WeatherCatV1.15B25,2013-07-15 11:55:00,
2013-07-15 07:00:00,62.9,59.3,30.09,SE,129,0.0,0.0,88,0.00,,,0.00,33,WeatherCatV1.15B25,2013-07-15 12:00:00,
2013-07-15 07:05:00,63.0,59.4,30.09,SE,129,0.0,0.0,88,0.00,,,0.00,35,WeatherCatV1.15B25,2013-07-15 12:05:00,
2013-07-15 07:10:00,63.2,59.6,30.08,SE,129,0.0,2.0,88,0.00,,,0.00,37,WeatherCatV1.15B25,2013-07-15 12:10:00,
2013-07-15 07:15:00,63.4,59.5,30.09,SE,129,0.0,3.0,87,0.00,,,0.00,40,WeatherCatV1.15B25,2013-07-15 12:15:00,
2013-07-15 07:20:00,63.6,59.7,30.09,SE,129,0.0,1.0,87,0.00,,,0.00,42,WeatherCatV1.15B25,2013-07-15 12:20:00,
2013-07-15 07:25:00,64.0,60.0,30.09,SE,129,0.0,0.0,87,0.00,,,0.00,47,WeatherCatV1.15B25,2013-07-15 12:25:00,
2013-07-15 07:30:00,64.2,59.9,30.09,SE,129,0.0,1.0,86,0.00,,,0.00,120,WeatherCatV1.15B25,2013-07-15 12:30:00,
2013-07-15 07:35:00,64.5,60.2,30.09,SE,129,0.0,1.0,86,0.00,,,0.00,165,WeatherCatV1.15B25,2013-07-15 12:35:00,
2013-07-15 07:40:00,65.1,60.5,30.09,SE,129,0.0,2.0,85,0.00,,,0.00,178,WeatherCatV1.15B25,2013-07-15 12:40:00,
2013-07-15 07:45:00,65.7,60.7,30.09,SE,129,0.0,0.0,84,0.00,,,0.00,193,WeatherCatV1.15B25,2013-07-15 12:45:00,
2013-07-15 07:50:00,66.5,61.2,30.09,SE,129,0.0,1.0,83,0.00,,,0.00,206,WeatherCatV1.15B25,2013-07-15 12:50:00,
2013-07-15 07:55:00,67.2,61.5,30.09,SE,129,2.0,3.0,82,0.00,,,0.00,220,WeatherCatV1.15B25,2013-07-15 12:55:00,
2013-07-15 08:00:00,67.7,61.7,30.09,SE,129,1.0,3.0,81,0.00,,,0.00,234,WeatherCatV1.15B25,2013-07-15 13:00:00,
2013-07-15 08:05:00,68.2,61.8,30.09,SE,129,2.0,4.0,80,0.00,,,0.00,253,WeatherCatV1.15B25,2013-07-15 13:05:00,
2013-07-15 08:10:00,68.6,61.8,30.09,SE,129,0.0,5.0,79,0.00,,,0.00,265,WeatherCatV1.15B25,2013-07-15 13:10:00,
2013-07-15 08:15:00,69.0,61.8,30.10,SE,129,3.0,5.0,78,0.00,,,0.00,278,WeatherCatV1.15B25,2013-07-15 13:15:00,
2013-07-15 08:20:00,69.4,61.9,30.10,SE,142,0.0,5.0,77,0.00,,,0.00,301,WeatherCatV1.15B25,2013-07-15 13:20:00,
2013-07-15 08:25:00,69.9,62.3,30.10,SSE,153,1.0,6.0,77,0.00,,,0.00,316,WeatherCatV1.15B25,2013-07-15 13:25:00,
2013-07-15 08:30:00,70.4,62.5,30.10,SSE,153,2.0,3.0,76,0.00,,,0.00,329,WeatherCatV1.15B25,2013-07-15 13:30:00,
2013-07-15 08:35:00,70.9,62.6,30.11,SSE,153,3.0,4.0,75,0.00,,,0.00,350,WeatherCatV1.15B25,2013-07-15 13:35:00,
2013-07-15 08:40:00,71.7,63.3,30.10,SSE,152,1.0,1.0,75,0.00,,,0.00,366,WeatherCatV1.15B25,2013-07-15 13:40:00,
2013-07-15 08:45:00,72.5,62.9,30.11,SSE,154,1.0,6.0,72,0.00,,,0.00,380,WeatherCatV1.15B25,2013-07-15 13:45:00,
2013-07-15 08:50:00,72.4,62.5,30.11,South,187,0.0,9.0,71,0.00,,,0.00,399,WeatherCatV1.15B25,2013-07-15 13:50:00,
2013-07-15 08:55:00,72.7,63.5,30.11,South,187,1.0,1.0,73,0.00,,,0.00,413,WeatherCatV1.15B25,2013-07-15 13:55:00,
2013-07-15 09:00:00,73.2,63.2,30.11,South,190,3.0,8.0,71,0.00,,,0.00,427,WeatherCatV1.15B25,2013-07-15 14:00:00,
2013-07-15 09:05:00,73.3,63.3,30.11,South,190,3.0,4.0,71,0.00,,,0.00,446,WeatherCatV1.15B25,2013-07-15 14:05:00,
2013-07-15 09:10:00,73.8,64.2,30.11,South,190,0.0,2.0,72,0.00,,,0.00,462,WeatherCatV1.15B25,2013-07-15 14:10:00,
2013-07-15 09:15:00,74.4,64.0,30.11,South,190,0.0,5.0,70,0.00,,,0.00,476,WeatherCatV1.15B25,2013-07-15 14:15:00,
2013-07-15 09:20:00,74.9,64.8,30.11,South,188,2.0,2.0,71,0.00,,,0.00,494,WeatherCatV1.15B25,2013-07-15 14:20:00,
2013-07-15 09:25:00,75.1,63.4,30.11,South,172,5.0,6.0,67,0.00,,,0.00,508,WeatherCatV1.15B25,2013-07-15 14:25:00,
2013-07-15 09:30:00,75.3,63.6,30.11,South,175,0.0,7.0,67,0.00,,,0.00,524,WeatherCatV1.15B25,2013-07-15 14:30:00,
2013-07-15 09:35:00,76.2,64.8,30.11,South,175,1.0,3.0,68,0.00,,,0.00,543,WeatherCatV1.15B25,2013-07-15 14:35:00,
2013-07-15 09:40:00,76.1,64.3,30.11,South,180,5.0,5.0,67,0.00,,,0.00,554,WeatherCatV1.15B25,2013-07-15 14:40:00,
2013-07-15 09:45:00,76.2,64.0,30.11,SE,143,0.0,5.0,66,0.00,,,0.00,570,WeatherCatV1.15B25,2013-07-15 14:45:00,
2013-07-15 09:50:00,76.6,64.4,30.11,SSE,159,0.0,10.0,66,0.00,,,0.00,582,WeatherCatV1.15B25,2013-07-15 14:50:00,
2013-07-15 09:55:00,76.5,63.8,30.11,SSE,159,4.0,10.0,65,0.00,,,0.00,599,WeatherCatV1.15B25,2013-07-15 14:55:00,
2013-07-15 10:00:00,76.5,64.3,30.11,SSE,151,4.0,7.0,66,0.00,,,0.00,617,WeatherCatV1.15B25,2013-07-15 15:00:00,
2013-07-15 10:05:00,76.9,63.8,30.11,SSE,152,4.0,6.0,64,0.00,,,0.00,629,WeatherCatV1.15B25,2013-07-15 15:05:00,
2013-07-15 10:10:00,77.0,64.8,30.11,SSE,159,0.0,2.0,66,0.00,,,0.00,643,WeatherCatV1.15B25,2013-07-15 15:10:00,
2013-07-15 10:15:00,77.7,64.5,30.11,SSE,150,3.0,7.0,64,0.00,,,0.00,654,WeatherCatV1.15B25,2013-07-15 15:15:00,
2013-07-15 10:20:00,77.9,64.3,30.11,SSE,148,3.0,6.0,63,0.00,,,0.00,668,WeatherCatV1.15B25,2013-07-15 15:20:00,
2013-07-15 10:25:00,78.1,64.9,30.11,SSE,153,1.0,3.0,64,0.00,,,0.00,680,WeatherCatV1.15B25,2013-07-15 15:25:00,
2013-07-15 10:30:00,78.3,63.7,30.11,SE,137,0.0,4.0,61,0.00,,,0.00,698,WeatherCatV1.15B25,2013-07-15 15:30:00,
2013-07-15 10:35:00,78.7,64.6,30.11,SE,143,3.0,5.0,62,0.00,,,0.00,710,WeatherCatV1.15B25,2013-07-15 15:35:00,
2013-07-15 10:40:00,78.7,63.6,30.11,SE,140,0.0,9.0,60,0.00,,,0.00,724,WeatherCatV1.15B25,2013-07-15 15:40:00,
2013-07-15 10:45:00,78.8,64.7,30.11,SE,140,5.0,6.0,62,0.00,,,0.00,737,WeatherCatV1.15B25,2013-07-15 15:45:00,
2013-07-15 10:50:00,79.3,64.2,30.11,SE,141,2.0,6.0,60,0.00,,,0.00,744,WeatherCatV1.15B25,2013-07-15 15:50:00,
2013-07-15 10:55:00,78.9,63.3,30.11,SSW,202,0.0,6.0,59,0.00,,,0.00,758,WeatherCatV1.15B25,2013-07-15 15:55:00,
2013-07-15 11:00:00,78.9,64.3,30.10,SSW,192,3.0,6.0,61,0.00,,,0.00,770,WeatherCatV1.15B25,2013-07-15 16:00:00,
2013-07-15 11:05:00,79.7,63.6,30.11,South,186,2.0,5.0,58,0.00,,,0.00,780,WeatherCatV1.15B25,2013-07-15 16:05:00,
2013-07-15 11:10:00,79.8,62.7,30.10,SSW,192,4.0,10.0,56,0.00,,,0.00,786,WeatherCatV1.15B25,2013-07-15 16:10:00,
2013-07-15 11:15:00,79.9,62.3,30.10,South,182,2.0,9.0,55,0.00,,,0.00,802,WeatherCatV1.15B25,2013-07-15 16:15:00,
2013-07-15 11:20:00,80.4,63.7,30.11,SSE,157,0.0,8.0,57,0.00,,,0.00,814,WeatherCatV1.15B25,2013-07-15 16:20:00,
2013-07-15 11:25:00,81.2,65.5,30.11,South,169,1.0,3.0,59,0.00,,,0.00,810,WeatherCatV1.15B25,2013-07-15 16:25:00,
2013-07-15 11:30:00,81.2,65.0,30.11,SSE,153,1.0,5.0,58,0.00,,,0.00,856,WeatherCatV1.15B25,2013-07-15 16:30:00,
2013-07-15 11:35:00,80.5,62.3,30.10,SSW,205,3.0,12.0,54,0.00,,,0.00,877,WeatherCatV1.15B25,2013-07-15 16:35:00,
2013-07-15 11:40:00,80.0,63.4,30.10,SSW,198,2.0,2.0,57,0.00,,,0.00,882,WeatherCatV1.15B25,2013-07-15 16:40:00,
2013-07-15 11:45:00,80.6,62.4,30.10,SSW,192,9.0,10.0,54,0.00,,,0.00,921,WeatherCatV1.15B25,2013-07-15 16:45:00,
2013-07-15 11:50:00,81.1,62.3,30.10,SSW,202,0.0,6.0,53,0.00,,,0.00,932,WeatherCatV1.15B25,2013-07-15 16:50:00,
2013-07-15 11:55:00,81.7,62.3,30.10,SE,138,5.0,7.0,52,0.00,,,0.00,928,WeatherCatV1.15B25,2013-07-15 16:55:00,
2013-07-15 12:00:00,81.9,61.4,30.10,SSE,161,6.0,9.0,50,0.00,,,0.00,958,WeatherCatV1.15B25,2013-07-15 17:00:00,
2013-07-15 12:05:00,81.6,61.1,30.09,ESE,115,0.0,4.0,50,0.00,,,0.00,965,WeatherCatV1.15B25,2013-07-15 17:05:00,
2013-07-15 12:10:00,81.8,60.7,30.09,South,184,0.0,4.0,49,0.00,,,0.00,940,WeatherCatV1.15B25,2013-07-15 17:10:00,
2013-07-15 12:15:00,82.2,60.5,30.09,East,101,0.0,9.0,48,0.00,,,0.00,942,WeatherCatV1.15B25,2013-07-15 17:15:00,
2013-07-15 12:20:00,82.5,61.4,30.09,South,190,7.0,7.0,49,0.00,,,0.00,947,WeatherCatV1.15B25,2013-07-15 17:20:00,
2013-07-15 12:25:00,82.1,59.2,30.09,SE,144,6.0,6.0,46,0.00,,,0.00,949,WeatherCatV1.15B25,2013-07-15 17:25:00,
2013-07-15 12:30:00,82.0,58.5,30.09,ESE,109,7.0,14.0,45,0.00,,,0.00,947,WeatherCatV1.15B25,2013-07-15 17:30:00,
2013-07-15 12:35:00,81.5,57.5,30.09,SE,130,0.0,6.0,44,0.00,,,0.00,956,WeatherCatV1.15B25,2013-07-15 17:35:00,
2013-07-15 12:40:00,82.0,58.5,30.09,SE,137,4.0,9.0,45,0.00,,,0.00,930,WeatherCatV1.15B25,2013-07-15 17:40:00,
2013-07-15 12:45:00,82.5,59.6,30.09,East,99,4.0,9.0,46,0.00,,,0.00,930,WeatherCatV1.15B25,2013-07-15 17:45:00,
2013-07-15 12:50:00,82.3,60.0,30.09,SSE,157,7.0,10.0,47,0.00,,,0.00,956,WeatherCatV1.15B25,2013-07-15 17:50:00,
2013-07-15 12:55:00,83.0,60.1,30.09,South,171,3.0,6.0,46,0.00,,,0.00,953,WeatherCatV1.15B25,2013-07-15 17:55:00,
2013-07-15 13:00:00,83.2,61.4,30.09,SE,129,5.0,5.0,48,0.00,,,0.00,962,WeatherCatV1.15B25,2013-07-15 18:00:00,
2013-07-15 13:05:00,83.4,61.6,30.09,SE,130,3.0,9.0,48,0.00,,,0.00,1016,WeatherCatV1.15B25,2013-07-15 18:05:00,
2013-07-15 13:10:00,83.3,60.9,30.10,SE,140,9.0,11.0,47,0.00,,,0.00,1041,WeatherCatV1.15B25,2013-07-15 18:10:00,
2013-07-15 13:12:00,83.1,60.8,30.09,SE,136,1.0,4.0,47,0.00,,,0.00,1041,WeatherCatV1.15B25,2013-07-15 18:12:00,
2013-07-15 13:15:00,83.0,61.8,30.09,South,169,4.0,4.0,49,0.00,,,0.00,285,WeatherCatV1.15B25,2013-07-15 18:15:00,
2013-07-15 13:19:00,83.1,61.9,30.09,SE,141,1.0,10.0,49,0.00,,,0.00,1118,WeatherCatV1.15B25,2013-07-15 18:19:00,
2013-07-15 13:24:00,83.4,61.6,30.09,South,171,0.0,10.0,48,0.00,,,0.00,309,WeatherCatV1.15B25,2013-07-15 18:24:00,
2013-07-15 13:29:00,83.4,62.2,30.09,SE,135,1.0,4.0,49,0.00,,,0.00,1106,WeatherCatV1.15B25,2013-07-15 18:29:00,
2013-07-15 13:34:00,82.6,61.5,30.09,SE,126,1.0,9.0,49,0.00,,,0.00,352,WeatherCatV1.15B25,2013-07-15 18:34:00,
2013-07-15 13:39:00,81.4,62.6,30.09,ESE,121,3.0,5.0,53,0.00,,,0.00,272,WeatherCatV1.15B25,2013-07-15 18:39:00,
2013-07-15 13:44:00,82.1,63.2,30.09,SSW,211,1.0,10.0,53,0.00,,,0.00,1092,WeatherCatV1.15B25,2013-07-15 18:44:00,
2013-07-15 13:49:00,82.7,62.7,30.09,South,186,0.0,4.0,51,0.00,,,0.00,306,WeatherCatV1.15B25,2013-07-15 18:49:00,
2013-07-15 13:54:00,82.7,63.3,30.08,ESE,123,4.0,5.0,52,0.00,,,0.00,313,WeatherCatV1.15B25,2013-07-15 18:54:00,
2013-07-15 13:59:00,82.2,62.8,30.08,ESE,107,0.0,10.0,52,0.00,,,0.00,1088,WeatherCatV1.15B25,2013-07-15 18:59:00,
2013-07-15 14:04:00,82.6,63.7,30.08,ESE,122,7.0,7.0,53,0.00,,,0.00,1030,WeatherCatV1.15B25,2013-07-15 19:04:00,
2013-07-15 14:09:00,82.7,63.3,30.08,SE,127,7.0,11.0,52,0.00,,,0.00,953,WeatherCatV1.15B25,2013-07-15 19:09:00,
2013-07-15 14:14:00,82.5,64.1,30.07,ESE,112,3.0,10.0,54,0.00,,,0.00,269,WeatherCatV1.15B25,2013-07-15 19:14:00,
2013-07-15 14:19:00,82.4,64.1,30.07,ESE,114,4.0,6.0,54,0.00,,,0.00,1076,WeatherCatV1.15B25,2013-07-15 19:19:00,
2013-07-15 14:21:00,82.3,63.4,30.07,SE,130,1.0,10.0,53,0.00,,,0.00,294,WeatherCatV1.15B25,2013-07-15 19:21:00,
2013-07-15 14:26:00,82.0,63.2,30.06,SE,146,3.0,7.0,53,0.00,,,0.00,260,WeatherCatV1.15B25,2013-07-15 19:26:00,
2013-07-15 14:31:00,82.5,63.6,30.06,SE,144,6.0,6.0,53,0.00,,,0.00,316,WeatherCatV1.15B25,2013-07-15 19:31:00,
2013-07-15 14:36:00,83.1,61.9,30.06,SE,136,3.0,11.0,49,0.00,,,0.00,1000,WeatherCatV1.15B25,2013-07-15 19:36:00,
2013-07-15 14:41:00,83.2,63.7,30.06,SE,142,5.0,5.0,52,0.00,,,0.00,287,WeatherCatV1.15B25,2013-07-15 19:41:00,
2013-07-15 14:46:00,82.9,64.5,30.06,SE,129,0.0,3.0,54,0.00,,,0.00,297,WeatherCatV1.15B25,2013-07-15 19:46:00,
2013-07-15 14:51:00,82.8,65.0,30.06,SE,126,2.0,10.0,55,0.00,,,0.00,1055,WeatherCatV1.15B25,2013-07-15 19:51:00,
2013-07-15 14:56:00,83.9,65.4,30.05,South,182,6.0,7.0,54,0.00,,,0.00,1000,WeatherCatV1.15B25,2013-07-15 19:56:00,
2013-07-15 15:01:00,84.5,64.4,30.06,SE,130,0.0,6.0,51,0.00,,,0.00,232,WeatherCatV1.15B25,2013-07-15 20:01:00,
2013-07-15 15:06:00,83.7,64.7,30.06,ESE,113,0.0,5.0,53,0.00,,,0.00,304,WeatherCatV1.15B25,2013-07-15 20:06:00,
2013-07-15 15:11:00,83.5,64.0,30.05,ESE,118,3.0,5.0,52,0.00,,,0.00,413,WeatherCatV1.15B25,2013-07-15 20:11:00,
2013-07-15 15:16:00,83.5,63.4,30.05,East,99,1.0,11.0,51,0.00,,,0.00,956,WeatherCatV1.15B25,2013-07-15 20:16:00,
2013-07-15 15:21:00,84.3,64.2,30.05,WSW,249,0.0,6.0,51,0.00,,,0.00,991,WeatherCatV1.15B25,2013-07-15 20:21:00,
2013-07-15 15:26:00,83.7,63.6,30.05,SE,129,0.0,6.0,51,0.00,,,0.00,366,WeatherCatV1.15B25,2013-07-15 20:26:00,
2013-07-15 15:31:00,83.4,63.3,30.05,ESE,111,1.0,13.0,51,0.00,,,0.00,264,WeatherCatV1.15B25,2013-07-15 20:31:00,
2013-07-15 15:36:00,83.0,64.1,30.05,SE,137,3.0,8.0,53,0.00,,,0.00,962,WeatherCatV1.15B25,2013-07-15 20:36:00,
2013-07-15 15:41:00,83.8,64.3,30.04,SE,126,1.0,11.0,52,0.00,,,0.00,937,WeatherCatV1.15B25,2013-07-15 20:41:00,
2013-07-15 15:46:00,84.5,64.9,30.04,SE,132,3.0,9.0,52,0.00,,,0.00,967,WeatherCatV1.15B25,2013-07-15 20:46:00,
2013-07-15 15:51:00,83.8,63.7,30.04,East,99,6.0,12.0,51,0.00,,,0.00,294,WeatherCatV1.15B25,2013-07-15 20:51:00,
2013-07-15 15:56:00,83.9,63.8,30.04,ESE,116,2.0,13.0,51,0.00,,,0.00,237,WeatherCatV1.15B25,2013-07-15 20:56:00,
2013-07-15 16:01:00,83.9,64.4,30.04,SE,134,0.0,6.0,52,0.00,,,0.00,745,WeatherCatV1.15B25,2013-07-15 21:01:00,
2013-07-15 16:06:00,83.8,64.8,30.04,SSE,160,2.0,10.0,53,0.00,,,0.00,858,WeatherCatV1.15B25,2013-07-15 21:06:00,
2013-07-15 16:11:00,84.3,65.3,30.03,SSE,165,5.0,7.0,53,0.00,,,0.00,856,WeatherCatV1.15B25,2013-07-15 21:11:00,
2013-07-15 16:16:00,84.0,65.0,30.03,SE,137,0.0,8.0,53,0.00,,,0.00,221,WeatherCatV1.15B25,2013-07-15 21:16:00,
2013-07-15 16:21:00,84.2,65.7,30.03,East,96,1.0,9.0,54,0.00,,,0.00,476,WeatherCatV1.15B25,2013-07-15 21:21:00,
2013-07-15 16:26:00,83.5,64.0,30.03,ESE,117,2.0,5.0,52,0.00,,,0.00,207,WeatherCatV1.15B25,2013-07-15 21:26:00,
2013-07-15 16:31:00,82.8,63.9,30.03,ESE,123,4.0,14.0,53,0.00,,,0.00,220,WeatherCatV1.15B25,2013-07-15 21:31:00,
2013-07-15 16:36:00,82.7,63.3,30.03,East,85,3.0,5.0,52,0.00,,,0.00,223,WeatherCatV1.15B25,2013-07-15 21:36:00,
2013-07-15 16:41:00,82.6,63.2,30.03,ESE,116,4.0,7.0,52,0.00,,,0.00,218,WeatherCatV1.15B25,2013-07-15 21:41:00,
2013-07-15 16:46:00,82.8,63.9,30.03,SE,140,5.0,6.0,53,0.00,,,0.00,171,WeatherCatV1.15B25,2013-07-15 21:46:00,
2013-07-15 16:51:00,83.0,64.6,30.03,ESE,106,2.0,5.0,54,0.00,,,0.00,724,WeatherCatV1.15B25,2013-07-15 21:51:00,
2013-07-15 16:56:00,83.4,64.4,30.03,SE,137,4.0,8.0,53,0.00,,,0.00,735,WeatherCatV1.15B25,2013-07-15 21:56:00,
2013-07-15 17:01:00,83.4,63.9,30.03,ESE,102,5.0,11.0,52,0.00,,,0.00,206,WeatherCatV1.15B25,2013-07-15 22:01:00,
2013-07-15 17:06:00,84.1,66.7,30.02,SSE,155,0.0,2.0,56,0.00,,,0.00,679,WeatherCatV1.15B25,2013-07-15 22:06:00,
2013-07-15 17:11:00,85.1,66.6,30.02,ESE,110,11.0,11.0,54,0.00,,,0.00,629,WeatherCatV1.15B25,2013-07-15 22:11:00,
2013-07-15 17:16:00,84.8,65.2,30.02,SE,136,2.0,4.0,52,0.00,,,0.00,619,WeatherCatV1.15B25,2013-07-15 22:16:00,
2013-07-15 17:21:00,84.9,65.8,30.02,ESE,119,1.0,4.0,53,0.00,,,0.00,610,WeatherCatV1.15B25,2013-07-15 22:21:00,
2013-07-15 17:26:00,85.0,64.2,30.02,SE,145,5.0,9.0,50,0.00,,,0.00,601,WeatherCatV1.15B25,2013-07-15 22:26:00,
2013-07-15 17:31:00,85.1,64.3,30.02,ESE,115,3.0,8.0,50,0.00,,,0.00,617,WeatherCatV1.15B25,2013-07-15 22:31:00,
2013-07-15 17:36:00,84.9,64.7,30.02,ESE,105,6.0,10.0,51,0.00,,,0.00,605,WeatherCatV1.15B25,2013-07-15 22:36:00,
2013-07-15 17:41:00,84.5,64.4,30.02,ESE,111,1.0,6.0,51,0.00,,,0.00,587,WeatherCatV1.15B25,2013-07-15 22:41:00,
2013-07-15 17:46:00,84.5,64.4,30.01,ESE,116,5.0,11.0,51,0.00,,,0.00,529,WeatherCatV1.15B25,2013-07-15 22:46:00,
2013-07-15 17:51:00,84.2,64.6,30.01,ESE,117,2.0,10.0,52,0.00,,,0.00,508,WeatherCatV1.15B25,2013-07-15 22:51:00,
2013-07-15 17:56:00,84.4,65.4,30.02,SE,136,2.0,4.0,53,0.00,,,0.00,490,WeatherCatV1.15B25,2013-07-15 22:56:00,
2013-07-15 18:01:00,84.7,65.1,30.01,ESE,103,1.0,5.0,52,0.00,,,0.00,475,WeatherCatV1.15B25,2013-07-15 23:01:00,
2013-07-15 18:06:00,84.7,65.1,30.01,SE,126,0.0,9.0,52,0.00,,,0.00,462,WeatherCatV1.15B25,2013-07-15 23:06:00,
2013-07-15 18:11:00,84.4,63.7,30.02,ESE,113,4.0,12.0,50,0.00,,,0.00,441,WeatherCatV1.15B25,2013-07-15 23:11:00,
2013-07-15 18:16:00,84.3,64.2,30.02,East,99,2.0,10.0,51,0.00,,,0.00,420,WeatherCatV1.15B25,2013-07-15 23:16:00,
2013-07-15 18:21:00,84.4,64.3,30.02,SE,137,0.0,9.0,51,0.00,,,0.00,413,WeatherCatV1.15B25,2013-07-15 23:21:00,
2013-07-15 18:26:00,84.7,64.0,30.02,SE,130,4.0,9.0,50,0.00,,,0.00,397,WeatherCatV1.15B25,2013-07-15 23:26:00,
2013-07-15 18:31:00,84.4,63.1,30.02,SSE,159,0.0,5.0,49,0.00,,,0.00,378,WeatherCatV1.15B25,2013-07-15 23:31:00,
2013-07-15 18:36:00,84.6,63.3,30.02,SE,136,7.0,7.0,49,0.00,,,0.00,364,WeatherCatV1.15B25,2013-07-15 23:36:00,
2013-07-15 18:41:00,84.7,64.5,30.02,SE,141,0.0,1.0,51,0.00,,,0.00,343,WeatherCatV1.15B25,2013-07-15 23:41:00,
2013-07-15 18:46:00,84.8,64.6,30.02,ESE,122,1.0,7.0,51,0.00,,,0.00,332,WeatherCatV1.15B25,2013-07-15 23:46:00,
2013-07-15 18:51:00,84.5,64.4,30.02,ESE,111,1.0,1.0,51,0.00,,,0.00,313,WeatherCatV1.15B25,2013-07-15 23:51:00,
2013-07-15 18:56:00,84.2,64.6,30.02,SE,132,1.0,2.0,52,0.00,,,0.00,295,WeatherCatV1.15B25,2013-07-15 23:56:00,
2013-07-15 19:01:00,83.9,63.8,30.02,ESE,119,5.0,10.0,51,0.00,,,0.00,283,WeatherCatV1.15B25,2013-07-16 00:01:00,
2013-07-15 19:06:00,83.7,64.2,30.02,ESE,109,2.0,8.0,52,0.00,,,0.00,264,WeatherCatV1.15B25,2013-07-16 00:06:00,
2013-07-15 19:11:00,83.5,63.4,30.02,ESE,109,1.0,10.0,51,0.00,,,0.00,253,WeatherCatV1.15B25,2013-07-16 00:11:00,
2013-07-15 19:16:00,83.3,63.8,30.01,SE,131,1.0,6.0,52,0.00,,,0.00,237,WeatherCatV1.15B25,2013-07-16 00:16:00,
2013-07-15 19:21:00,83.3,64.4,30.01,ESE,108,0.0,5.0,53,0.00,,,0.00,221,WeatherCatV1.15B25,2013-07-16 00:21:00,
2013-07-15 19:26:00,83.2,64.3,30.01,ESE,114,2.0,3.0,53,0.00,,,0.00,207,WeatherCatV1.15B25,2013-07-16 00:26:00,
2013-07-15 19:31:00,83.1,64.2,30.01,East,98,0.0,6.0,53,0.00,,,0.00,193,WeatherCatV1.15B25,2013-07-16 00:31:00,
2013-07-15 19:36:00,83.1,64.7,30.01,East,101,1.0,1.0,54,0.00,,,0.00,172,WeatherCatV1.15B25,2013-07-16 00:36:00,
2013-07-15 19:41:00,82.9,64.0,30.01,ESE,120,2.0,4.0,53,0.00,,,0.00,155,WeatherCatV1.15B25,2013-07-16 00:41:00,
2013-07-15 19:46:00,82.8,63.9,30.02,ESE,119,2.0,4.0,53,0.00,,,0.00,139,WeatherCatV1.15B25,2013-07-16 00:46:00,
2013-07-15 19:50:00,82.6,64.2,30.02,SE,126,0.0,5.0,54,0.00,,,0.00,123,WeatherCatV1.15B25,2013-07-16 00:50:00,
2013-07-15 19:51:00,82.6,64.2,30.02,SE,125,4.0,5.0,54,0.00,,,0.00,123,WeatherCatV1.15B25,2013-07-16 00:51:00,
2013-07-15 19:56:00,82.4,64.6,30.02,ESE,122,0.0,6.0,55,0.00,,,0.00,107,WeatherCatV1.15B25,2013-07-16 00:56:00,
2013-07-15 20:01:00,82.1,64.8,30.02,ESE,121,1.0,1.0,56,0.00,,,0.00,91,WeatherCatV1.15B25,2013-07-16 01:01:00,
2013-07-15 20:06:00,81.9,64.6,30.01,ESE,121,0.0,4.0,56,0.00,,,0.00,81,WeatherCatV1.15B25,2013-07-16 01:06:00,
2013-07-15 20:11:00,81.6,64.9,30.01,ESE,121,1.0,6.0,57,0.00,,,0.00,69,WeatherCatV1.15B25,2013-07-16 01:11:00,
2013-07-15 20:16:00,81.3,64.6,30.02,ESE,121,0.0,3.0,57,0.00,,,0.00,56,WeatherCatV1.15B25,2013-07-16 01:16:00,
2013-07-15 20:21:00,81.0,64.8,30.01,ESE,121,1.0,1.0,58,0.00,,,0.00,47,WeatherCatV1.15B25,2013-07-16 01:21:00,
2013-07-15 20:26:00,80.7,65.0,30.01,ESE,121,0.0,1.0,59,0.00,,,0.00,39,WeatherCatV1.15B25,2013-07-16 01:26:00,
2013-07-15 20:31:00,80.3,65.1,30.02,ESE,121,0.0,5.0,60,0.00,,,0.00,32,WeatherCatV1.15B25,2013-07-16 01:31:00,
2013-07-15 20:36:00,80.0,65.3,30.02,ESE,121,0.0,2.0,61,0.00,,,0.00,25,WeatherCatV1.15B25,2013-07-16 01:36:00,
2013-07-15 20:41:00,79.7,65.0,30.02,ESE,121,0.0,5.0,61,0.00,,,0.00,21,WeatherCatV1.15B25,2013-07-16 01:41:00,
2013-07-15 20:46:00,79.5,65.3,30.01,ESE,121,0.0,2.0,62,0.00,,,0.00,16,WeatherCatV1.15B25,2013-07-16 01:46:00,
2013-07-15 20:51:00,79.3,65.1,30.02,ESE,120,0.0,4.0,62,0.00,,,0.00,12,WeatherCatV1.15B25,2013-07-16 01:51:00,
2013-07-15 20:56:00,79.0,65.3,30.02,ESE,119,0.0,2.0,63,0.00,,,0.00,11,WeatherCatV1.15B25,2013-07-16 01:56:00,
2013-07-15 21:01:00,78.7,65.5,30.02,ESE,119,0.0,2.0,64,0.00,,,0.00,7,WeatherCatV1.15B25,2013-07-16 02:01:00,
2013-07-15 21:06:00,78.5,65.3,30.02,ESE,121,0.0,0.0,64,0.00,,,0.00,5,WeatherCatV1.15B25,2013-07-16 02:06:00,
2013-07-15 21:11:00,78.1,65.8,30.02,ESE,121,0.0,3.0,66,0.00,,,0.00,0,WeatherCatV1.15B25,2013-07-16 02:11:00,
2013-07-15 21:16:00,77.8,65.5,30.02,ESE,121,0.0,0.0,66,0.00,,,0.00,0,WeatherCatV1.15B25,2013-07-16 02:16:00,
2013-07-15 21:21:00,77.4,65.6,30.03,SE,128,2.0,5.0,67,0.00,,,0.00,0,WeatherCatV1.15B25,2013-07-16 02:21:00,
2013-07-15 21:26:00,77.1,65.3,30.03,SE,139,7.0,10.0,67,0.00,,,0.00,0,WeatherCatV1.15B25,2013-07-16 02:26:00,
2013-07-15 21:31:00,77.0,64.8,30.03,South,173,1.0,6.0,66,0.00,,,0.00,0,WeatherCatV1.15B25,2013-07-16 02:31:00,
2013-07-15 21:36:00,76.9,64.2,30.04,SSE,148,4.0,7.0,65,0.00,,,0.00,0,WeatherCatV1.15B25,2013-07-16 02:36:00,
2013-07-15 21:41:00,76.8,64.1,30.04,SSW,205,8.0,11.0,65,0.00,,,0.00,0,WeatherCatV1.15B25,2013-07-16 02:41:00,
2013-07-15 21:46:00,76.6,63.9,30.04,South,182,5.0,8.0,65,0.00,,,0.00,0,WeatherCatV1.15B25,2013-07-16 02:46:00,
2013-07-15 21:51:00,76.5,63.8,30.04,SSE,160,1.0,6.0,65,0.00,,,0.00,0,WeatherCatV1.15B25,2013-07-16 02:51:00,
2013-07-15 21:56:00,76.4,63.7,30.04,South,188,0.0,5.0,65,0.00,,,0.00,0,WeatherCatV1.15B25,2013-07-16 02:56:00,
2013-07-15 22:01:00,76.4,63.7,30.04,SE,126,0.0,4.0,65,0.00,,,0.00,0,WeatherCatV1.15B25,2013-07-16 03:01:00,
2013-07-15 22:06:00,76.4,63.3,30.04,South,190,3.0,7.0,64,0.00,,,0.00,0,WeatherCatV1.15B25,2013-07-16 03:06:00,
2013-07-15 22:11:00,76.5,62.9,30.04,South,189,0.0,5.0,63,0.00,,,0.00,0,WeatherCatV1.15B25,2013-07-16 03:11:00,
2013-07-15 22:16:00,76.6,63.0,30.04,South,188,0.0,0.0,63,0.00,,,0.00,0,WeatherCatV1.15B25,2013-07-16 03:16:00,
2013-07-15 22:21:00,76.5,63.4,30.04,South,188,3.0,3.0,64,0.00,,,0.00,0,WeatherCatV1.15B25,2013-07-16 03:21:00,
2013-07-15 22:26:00,76.4,63.3,30.04,South,189,0.0,3.0,64,0.00,,,0.00,0,WeatherCatV1.15B25,2013-07-16 03:26:00,
2013-07-15 22:31:00,76.3,62.8,30.05,South,188,0.0,2.0,63,0.00,,,0.00,0,WeatherCatV1.15B25,2013-07-16 03:31:00,
2013-07-15 22:36:00,76.3,62.8,30.05,South,188,0.0,2.0,63,0.00,,,0.00,0,WeatherCatV1.15B25,2013-07-16 03:36:00,
2013-07-15 22:41:00,76.2,62.7,30.05,South,189,0.0,0.0,63,0.00,,,0.00,0,WeatherCatV1.15B25,2013-07-16 03:41:00,
2013-07-15 22:46:00,76.0,62.5,30.05,South,188,0.0,4.0,63,0.00,,,0.00,0,WeatherCatV1.15B25,2013-07-16 03:46:00,
2013-07-15 22:51:00,75.8,62.7,30.06,South,188,1.0,4.0,64,0.00,,,0.00,0,WeatherCatV1.15B25,2013-07-16 03:51:00,
2013-07-15 22:56:00,75.7,62.6,30.06,SSW,201,3.0,13.0,64,0.00,,,0.00,0,WeatherCatV1.15B25,2013-07-16 03:56:00,
2013-07-15 23:01:00,75.5,62.9,30.06,South,172,6.0,10.0,65,0.00,,,0.00,0,WeatherCatV1.15B25,2013-07-16 04:01:00,
2013-07-15 23:06:00,75.2,63.0,30.07,SSW,194,1.0,13.0,66,0.00,,,0.00,0,WeatherCatV1.15B25,2013-07-16 04:06:00,
2013-07-15 23:11:00,75.0,63.3,30.07,SW,223,7.0,12.0,67,0.00,,,0.00,0,WeatherCatV1.15B25,2013-07-16 04:11:00,
2013-07-15 23:16:00,74.9,63.2,30.07,South,178,3.0,7.0,67,0.00,,,0.00,0,WeatherCatV1.15B25,2013-07-16 04:16:00,
2013-07-15 23:21:00,74.8,63.5,30.07,South,183,10.0,11.0,68,0.00,,,0.00,0,WeatherCatV1.15B25,2013-07-16 04:21:00,
2013-07-15 23:26:00,74.8,63.5,30.08,South,190,2.0,10.0,68,0.00,,,0.00,0,WeatherCatV1.15B25,2013-07-16 04:26:00,
2013-07-15 23:31:00,74.7,63.4,30.08,SSW,199,0.0,6.0,68,0.00,,,0.00,0,WeatherCatV1.15B25,2013-07-16 04:31:00,
2013-07-15 23:36:00,74.6,63.3,30.07,South,188,0.0,2.0,68,0.00,,,0.00,0,WeatherCatV1.15B25,2013-07-16 04:36:00,
2013-07-15 23:41:00,74.6,63.3,30.07,South,189,3.0,4.0,68,0.00,,,0.00,0,WeatherCatV1.15B25,2013-07-16 04:41:00,
2013-07-15 23:46:00,74.5,63.6,30.07,SSW,198,0.0,8.0,69,0.00,,,0.00,0,WeatherCatV1.15B25,2013-07-16 04:46:00,
2013-07-15 23:51:00,74.4,63.5,30.07,SSW,194,3.0,5.0,69,0.00,,,0.00,0,WeatherCatV1.15B25,2013-07-16 04:51:00,
2013-07-15 23:56:00,74.3,63.5,30.07,SSW,199,0.0,9.0,69,0.00,,,0.00,0,WeatherCatV1.15B25,2013-07-16 04:56:00,